STRIX-2

Last updated on Tue Jan 21 2025 00:02:04 GMT+0000 (Coordinated Universal Time)

1 62406U 24248A 25020.57438302 .00012408 00000+0 98769-3 0 9995 2 62406 97.5692 339.4099 0017504 266.4823 93.4399 15.00405405 4491
UTC large
Height (km)
Speed (km/s)
/
Latitude / Longitude
Inclination (degrees)
Orbital Period (minutes)
Azimuth
Elevation
Range (km)
Doppler Factor

Next 0 passes for location: London (51.5072 / 0.1276)

Sorry there are no passes over London.